Location: Dehesa de la Cepeda
(40.6574°N, 4.3013°W)
Time: 21:08:14
(UTC+00:00)

Vanguard 3 - Pass Details

Date: 10 August 2021
Orbit: 510 x 3260 km, 33.3° (Epoch: 22 September)

Event Time Altitude Azimuth Distance (km) Brightness Sun altitude
Rises 22:14:30 0° 278° (W) 6,375 12.3 -26.7°
Reaches altitude 10° 22:19:20 10° 268° (W) 5,679 11.8 -27.2°
Maximum altitude 22:33:09 28° 219° (SW) 4,817 10.8 -28.6°
Enters shadow 22:39:50 23° 192° (SSW) 5,126 10.7 -29.2°
